[[{"header":{"parameterUnit":"m.s-1","parameterCategory":2,"la1":30.2991,"la2":30.254,"lo1":-89.0895,"lo2":-89.0444,"dy":0.0017,"dx":0.0017,"nx":28,"ny":28,"refTime":"2024-04-11T09:00:00:Z","depth":"0","parameterNumber":2,"parameterNumberName":"U-component_of_CURRENTS"},"data":[0,0,0,0,0,0,0,0,0,0,0,0,0,0,0,0,0,0,0,0,0,0,0,0,0,0,0,0,0,0,0,0,0,0,0,0,0,0,0,0,0,0,0,0,0,0,0,0,0,0,0,0,0,0,0,0,0,0,0.1794,0.1794,0,0.1819,0.182,0.182,0.1817,0.1816,0.1816,0.1816,0.1791,0.1791,0.179,0,0,0,0,0,0,0,0,0,0,0,0,0,0.175,0.1751,0.1794,0.1794,0.1795,0.1819,0.182,0.182,0.1817,0.1816,0.1816,0.1816,0.1791,0.1791,0.179,0,0,0,0,0,0,0,0,0,0,0,0,0,0.1771,0.1751,0.1794,0.1797,0.1797,0.1819,0.182,0.182,0.1817,0.1816,0.1816,0.1815,0.1791,0.1791,0.179,0.1797,0,0,0.1789,0.1789,0,0,0,0,0,0,0,0,0.177,0.1772,0.1796,0.1796,0.1797,0.1815,0.1795,0.181,0.1817,0.1808,0.1816,0.1815,0.1795,0.1795,0.18,0.1796,0.1795,0.1789,0.1788,0.1788,0.1788,0,0,0,0,0,0,0,0.1768,0.1771,0.1803,0.1796,0.1797,0.18,0.1802,0.1798,0.1803,0.1809,0.1809,0.1814,0.1795,0.18,0.1799,0.1794,0.1789,0.1788,0.1788,0.1788,0.1854,0.1856,0,0,0,0,0,0,0.1767,0.177,0.1802,0.1804,0.1783,0.1801,0.1803,0.1809,0.1804,0.1803,0.1814,0.1813,0.1802,0.18,0.1798,0.1842,0.1788,0.1788,0.1787,0.1852,0.1854,0.1856,0,0,0,0,0,0,0.1766,0.177,0.1801,0.1788,0.1792,0.1802,0.1809,0.181,0.1819,0.1808,0.1806,0.1822,0.1801,0.1799,0.1816,0.184,0.1787,0.1787,0.1849,0.1852,0.1855,0.1907,0,0,0,0,0,0,0.1765,0.1769,0.1773,0.1788,0.1793,0.1824,0.1809,0.1811,0.1822,0.1822,0.1814,0.1812,0.1801,0.1818,0.1816,0.1838,0.1787,0.1847,0.1851,0.1854,0.1902,0.1911,0.1919,0,0,0,0,0,0.1763,0.1772,0.1773,0.1777,0.1798,0.1825,0.1828,0.1832,0.1823,0.1836,0.1839,0.1812,0.1841,0.1819,0.1816,0.1839,0.1845,0.1849,0.1854,0.1899,0.1909,0.1919,0,0,0,0,0,0,0.1746,0.1773,0.1775,0.1788,0.181,0.1825,0.1836,0.1837,0.1849,0.1848,0.1832,0.1831,0.1855,0.1847,0.1822,0.1874,0.1841,0.1845,0.1876,0.1886,0.1894,0.1889,0.1786,0,0,0,0,0,0.1746,0.1766,0.1788,0.1799,0.1812,0.1825,0.1835,0.1841,0.1853,0.1858,0.1854,0.1859,0.1874,0.1878,0.1884,0.1908,0.1884,0.1926,0.1934,0.194,0.1939,0.1932,0.1939,0.1872,0.1872,0.1871,0,0,0.174,0.1759,0.1768,0.1798,0.1813,0.1839,0.183,0.1853,0.1874,0.1853,0.1877,0.1881,0.1887,0.1918,0.1928,0.1912,0.1949,0.1946,0.1952,0.1946,0.1938,0.1944,0.1949,0.1875,0.1874,0.1874,0,0,0.1749,0.1759,0.1784,0.1809,0.1841,0.1851,0.186,0.1883,0.1895,0.1922,0.1919,0.1944,0.1953,0.1973,0.1981,0.204,0.199,0.2041,0.2077,0.2072,0.2076,0.208,0.2056,0.2057,0.2047,0.2048,0.2048,0,0.1739,0.1775,0.1794,0.1829,0.185,0.1858,0.1889,0.1906,0.1931,0.1944,0.1936,0.1975,0.1983,0.2027,0.2056,0.2057,0.2032,0.2035,0.2079,0.2082,0.2085,0.206,0.206,0.2051,0.205,0.205,0.205,0,0.1777,0.1804,0.1822,0.1868,0.1892,0.1922,0.1949,0.1968,0.1975,0.199,0.2029,0.2047,0.2066,0.2086,0.2089,0.2127,0.2095,0.2085,0.2046,0.2094,0.2065,0.2065,0.2055,0.2054,0.2053,0.2052,0,0,0.1756,0.1833,0.1839,0.1865,0.1918,0.1937,0.1977,0.2015,0.2031,0.2059,0.2089,0.2136,0.2134,0.2146,0.2156,0.2166,0.2178,0.2138,0.2136,0.2099,0.2143,0.2138,0.2137,0.2164,0.2164,0.2164,0.2113,0,0.1779,0.1845,0.188,0.1929,0.1962,0.1989,0.2023,0.2056,0.2075,0.2103,0.2134,0.2162,0.216,0.2173,0.2185,0.2181,0.2179,0.2192,0.2114,0.2112,0.209,0.2138,0.2118,0.2072,0.2112,0.2112,0.2112,0,0.1807,0.1848,0.1908,0.1962,0.1978,0.2004,0.2046,0.2079,0.2124,0.2141,0.217,0.2183,0.2222,0.2207,0.2202,0.2203,0.2177,0.2167,0.2164,0.2139,0.2107,0.2032,0.2069,0.2066,0.211,0.211,0.211,0,0.179,0.1861,0.1906,0.193,0.1995,0.2017,0.2042,0.2087,0.2109,0.2161,0.2175,0.2209,0.222,0.2207,0.2192,0.2191,0.2167,0.2159,0.2125,0.2122,0.2082,0.2076,0.2094,0.2143,0.2143,0.2143,0.2143,0,0.1806,0.1837,0.1897,0.1924,0.1956,0.2006,0.2037,0.2068,0.2113,0.2135,0.2185,0.2199,0.2217,0.221,0.2192,0.2156,0.2158,0.2136,0.2117,0.2101,0.2098,0.2074,0.2053,0.2141,0.2142,0.2142,0.2142,0,0.1793,0.1837,0.1879,0.1941,0.1953,0.1974,0.202,0.2039,0.2087,0.2118,0.2136,0.2182,0.218,0.2184,0.2163,0.2147,0.2075,0.2103,0.208,0.2061,0.2044,0.2027,0.1877,0.1815,0.2065,0.2065,0.2065,0,0.1799,0.1823,0.1875,0.1881,0.1908,0.1941,0.1961,0.2017,0.2038,0.2096,0.2108,0.2132,0.2137,0.2118,0.2115,0.2086,0.2029,0.2043,0.2056,0.2051,0.2017,0.1906,0.1857,0.2014,0.2013,0.2013,0.2012,0,0.1799,0.1813,0.1841,0.1854,0.1872,0.1885,0.1918,0.1926,0.199,0.2005,0.2012,0.2024,0.2061,0.2046,0.2049,0.2032,0.1979,0.2032,0.2032,0.1991,0.1862,0.1791,0.2028,0.2007,0.2008,0.2008,0.2009,0.2009,0.1781,0.179,0.1812,0.1809,0.1823,0.1808,0.178,0.1816,0.1815,0.1815,0.1888,0.189,0.1996,0.2013,0.1975,0.1985,0.1919,0.1975,0.1954,0.1842,0.1788,0.2015,0.1977,0.1977,0.1977,0.1977,0.1978,0,0.1734,0.1747,0.1758,0.1742,0.1707,0.1734,0.1728,0.168,0.1632,0.171,0.17,0.1805,0.185,0.1924,0.2004,0.1951,0.1824,0.1907,0.177,0.1726,0.1953,0.1964,0.1914,0.1914,0.1914,0.1914,0.1914,0.1914,0.1715,0.1696,0.1694,0.1615,0.1593,0.1512,0.1474,0.1429,0.146,0.1463,0.1527,0.161,0.1839,0.1981,0.2002,0.1947,0.1789,0.1699,0.1653,0.188,0.1886,0.1891,0.19,0.1838,0.1837,0.1379,0.1376,0.1374]},{"header":{"parameterUnit":"m.s-1","parameterCategory":2,"la1":30.2991,"la2":30.254,"lo1":-89.0895,"lo2":-89.0444,"dy":0.0017,"dx":0.0017,"nx":28,"ny":28,"refTime":"2024-04-11T09:00:00:Z","depth":"0","parameterNumber":3,"parameterNumberName":"V-component_of_CURRENTS"},"data":[0,0,0,0,0,0,0,0,0,0,0,0,0,0,0,0,0,0,0,0,0,0,0,0,0,0,0,0,0,0,0,0,0,0,0,0,0,0,0,0,0,0,0,0,0,0,0,0,0,0,0,0,0,0,0,0,0,0,0.0045,0.0045,0,0.0038,0.0038,0.0038,0.0026,0.0026,0.0026,0.0026,-0.0003,-0.0004,-0.0005,0,0,0,0,0,0,0,0,0,0,0,0,0,0.0026,0.0026,0.0045,0.0045,0.0045,0.0038,0.0038,0.0038,0.0026,0.0026,0.0026,0.0026,-0.0003,-0.0004,-0.0005,0,0,0,0,0,0,0,0,0,0,0,0,0,0.0027,0.0026,0.0045,0.0039,0.0039,0.0038,0.0038,0.0038,0.0026,0.0026,0.0026,0.0025,-0.0003,-0.0004,-0.0005,-0.0008,0,0,-0.0008,-0.0008,0,0,0,0,0,0,0,0,0.0027,0.0027,0.004,0.004,0.0039,0.0034,0.002,0.0022,0.0026,0.003,0.0026,0.0025,0.0008,0.0006,0.0004,-0.0009,-0.001,-0.0008,-0.0009,-0.0009,-0.0009,0,0,0,0,0,0,0,0.0027,0.0028,0.0041,0.004,0.0039,0.0029,0.0029,0.0021,0.0018,0.0029,0.0029,0.003,0.0007,0.0005,0.0003,-0.0011,-0.0008,-0.0009,-0.001,-0.001,-0.0027,-0.0027,0,0,0,0,0,0,0.0032,0.0028,0.0041,0.0041,0.0034,0.003,0.003,0.0035,0.0019,0.0017,0.003,0.0029,0.0006,0.0004,0.0002,0.0005,-0.0009,-0.001,-0.0011,-0.0027,-0.0027,-0.0027,0,0,0,0,0,0,0.0031,0.0033,0.0042,0.0035,0.0035,0.0031,0.0036,0.0035,0.0032,0.002,0.0017,0.0029,0.0006,0.0003,-0.0002,0.0003,-0.001,-0.0011,-0.0027,-0.0027,-0.0027,0.0006,0,0,0,0,0,0,0.0031,0.0033,0.0036,0.0035,0.0036,0.0045,0.0036,0.0035,0.0034,0.0033,0.0018,0.0015,0.0006,-0.0,-0.0003,0.0002,-0.0012,-0.0027,-0.0027,-0.0027,0.0005,0.0008,0.001,0,0,0,0,0,0.003,0.0038,0.0037,0.0038,0.0041,0.0045,0.0044,0.0039,0.0034,0.0036,0.0027,0.0016,-0.0,-0.0001,-0.0004,0.0001,-0.0028,-0.0027,-0.0027,0.0004,0.0007,0.001,0,0,0,0,0,0,0.0031,0.0038,0.0036,0.0045,0.0046,0.0044,0.0045,0.0041,0.0035,0.0033,0.0019,0.0016,0.0013,0.0002,0.0002,-0.0004,-0.0017,-0.0017,0.0008,0.0011,0.0013,0.0024,-0.0013,0,0,0,0,0,0.0033,0.0041,0.0044,0.0051,0.0052,0.0048,0.0048,0.0046,0.0042,0.0039,0.003,0.0019,0.0012,0.0008,-0.0001,-0.0003,-0.0013,-0.0004,-0.0001,0.0001,0.0007,0.0,0.0003,-0.0026,-0.0026,-0.0026,0,0,0.0036,0.004,0.0045,0.0051,0.0051,0.0059,0.0047,0.0051,0.0057,0.0037,0.004,0.0027,0.0013,0.0012,0.0009,0.0003,0.0003,0.0001,0.0003,0.0008,0.0001,0.0004,0.0006,-0.0025,-0.0025,-0.0026,0,0,0.0047,0.0048,0.006,0.0062,0.0066,0.0066,0.0068,0.0067,0.0066,0.0067,0.0054,0.0046,0.0035,0.0028,0.0022,0.0032,0.0016,0.0026,0.0048,0.0042,0.0044,0.0046,0.0034,0.0035,0.0028,0.0028,0.0028,0,0.0049,0.0067,0.0063,0.0073,0.008,0.0071,0.0085,0.0082,0.008,0.0084,0.0072,0.0061,0.0044,0.0047,0.0048,0.0038,0.0031,0.004,0.0046,0.0048,0.0049,0.0036,0.0036,0.003,0.0029,0.0029,0.0029,0,0.007,0.0083,0.009,0.0102,0.0106,0.0117,0.0115,0.0119,0.0115,0.0113,0.0114,0.0093,0.0087,0.0079,0.0066,0.007,0.006,0.005,0.0041,0.0054,0.0039,0.0039,0.0032,0.0031,0.0031,0.0031,0,0,0.0086,0.0102,0.0106,0.012,0.0124,0.0134,0.0143,0.0155,0.0169,0.0156,0.0174,0.0149,0.0136,0.0128,0.0109,0.0101,0.0098,0.0083,0.0082,0.0075,0.0083,0.0078,0.0078,0.0093,0.0093,0.0093,0.0066,0,0.0107,0.0137,0.0137,0.0167,0.0185,0.018,0.0191,0.0197,0.0198,0.0212,0.0191,0.0196,0.0155,0.0156,0.0139,0.0115,0.01,0.0106,0.0067,0.0066,0.0064,0.0078,0.009,0.0068,0.0066,0.0066,0.0066,0,0.0136,0.0154,0.0184,0.0211,0.0218,0.0228,0.0254,0.0265,0.0274,0.0275,0.027,0.0254,0.024,0.0206,0.016,0.0167,0.0126,0.0101,0.0099,0.0085,0.0062,0.0054,0.0068,-0.0016,0.0065,0.0065,0.0065,0,0.0164,0.0192,0.0221,0.0227,0.0248,0.0261,0.0275,0.0285,0.0309,0.032,0.0342,0.0309,0.031,0.0255,0.0187,0.0178,0.0141,0.0119,0.0073,0.0072,0.007,0.0068,0.0003,0.0085,0.0085,0.0085,0.0085,0,0.0196,0.0223,0.0236,0.0252,0.0291,0.0291,0.0331,0.0341,0.0367,0.0411,0.0377,0.0404,0.0324,0.0291,0.0215,0.0147,0.0155,0.0083,0.0069,0.0081,0.008,-0.0003,-0.0062,0.0084,0.0084,0.0085,0.0085,0,0.0229,0.0236,0.0273,0.0296,0.0306,0.0335,0.0376,0.0411,0.0425,0.0485,0.0496,0.0482,0.0439,0.0349,0.0267,0.0193,0.0075,0.0091,0.0107,0.0096,-0.0023,-0.0081,-0.0171,-0.019,0.0041,0.0041,0.004,0,0.0253,0.0273,0.0306,0.0332,0.0344,0.0384,0.0418,0.0441,0.0486,0.0539,0.058,0.0556,0.0553,0.0423,0.0287,0.0157,0.0069,0.0082,0.0062,-0.0023,-0.0098,-0.0143,-0.0156,0.0067,0.0067,0.0067,0.0067,0,0.0298,0.0304,0.033,0.038,0.0418,0.0467,0.0519,0.0562,0.0606,0.0654,0.0712,0.0714,0.0599,0.0481,0.03,0.0204,0.0025,0.0079,-0.0011,-0.0081,-0.0133,-0.016,0.0069,0.0068,0.0068,0.0067,0.0067,0.0067,0.033,0.0356,0.0385,0.0434,0.0481,0.0546,0.0589,0.0652,0.0725,0.0805,0.0809,0.0844,0.0674,0.0433,0.0278,0.0029,0.0017,-0.0044,-0.0107,-0.0144,-0.0164,0.0065,0.005,0.005,0.005,0.0049,0.0049,0,0.0372,0.0397,0.0442,0.0496,0.0549,0.0567,0.0655,0.0701,0.0786,0.0882,0.0926,0.0914,0.0674,0.044,0.0102,-0.0103,-0.0178,-0.0223,-0.0287,-0.0289,-0.0084,-0.0082,-0.0123,-0.0123,-0.0123,-0.0123,-0.0123,-0.0123,0.0396,0.0439,0.0457,0.0541,0.0581,0.0649,0.0697,0.077,0.085,0.0971,0.1048,0.1094,0.0992,0.0288,-0.016,-0.0282,-0.0422,-0.0486,-0.0541,-0.0413,-0.0401,-0.039,-0.0401,-0.0509,-0.051,-0.0701,-0.0703,-0.0705]}],[{"header":{"parameterUnit":"m.s-1","parameterCategory":2,"la1":30.2991,"la2":30.254,"lo1":-89.0895,"lo2":-89.0444,"dy":0.0017,"dx":0.0017,"nx":28,"ny":28,"refTime":"2024-04-11T09:00:00:Z","depth":"2","parameterNumber":2,"parameterNumberName":"U-component_of_CURRENTS"},"data":[0,0,0,0,0,0,0,0,0,0,0,0,0,0,0,0,0,0,0,0,0,0,0,0,0,0,0,0,0,0,0,0,0,0,0,0,0,0,0,0,0,0,0,0,0,0,0,0,0,0,0,0,0,0,0,0,0,0,0.1526,0.1526,0,0.1547,0.1548,0.1548,0.1565,0.1564,0.1564,0.1564,0.1582,0.1583,0.1583,0,0,0,0,0,0,0,0,0,0,0,0,0,0.1492,0.1493,0.1526,0.1526,0.1526,0.1547,0.1548,0.1549,0.1565,0.1564,0.1564,0.1564,0.1582,0.1583,0.1583,0,0,0,0,0,0,0,0,0,0,0,0,0,0.1513,0.1494,0.1526,0.1534,0.1535,0.1547,0.1548,0.1549,0.1565,0.1564,0.1564,0.1564,0.1582,0.1583,0.1583,0.1595,0,0,0.1586,0.1587,0,0,0,0,0,0,0,0,0.1512,0.1515,0.1533,0.1533,0.1534,0.155,0.1542,0.1563,0.1565,0.1557,0.1564,0.1564,0.1569,0.1571,0.1581,0.1596,0.1597,0.1587,0.1587,0.1588,0.1588,0,0,0,0,0,0,0,0.1511,0.1514,0.1538,0.1533,0.1533,0.1533,0.1537,0.1547,0.1567,0.1558,0.1558,0.1555,0.157,0.158,0.1581,0.1597,0.1587,0.1587,0.1588,0.1588,0.1677,0.1678,0,0,0,0,0,0,0.1501,0.1513,0.1538,0.1539,0.1518,0.1534,0.1538,0.1548,0.1567,0.1569,0.1555,0.1555,0.1578,0.158,0.1582,0.1637,0.1588,0.1589,0.1589,0.1675,0.1677,0.1679,0,0,0,0,0,0,0.1501,0.1504,0.1537,0.1522,0.1526,0.1535,0.1546,0.1549,0.1572,0.1564,0.1566,0.1577,0.1578,0.158,0.1605,0.1636,0.1589,0.159,0.1673,0.1676,0.1678,0.1721,0,0,0,0,0,0,0.15,0.1504,0.1511,0.1522,0.1526,0.1553,0.1546,0.1549,0.1568,0.1569,0.1584,0.1584,0.1578,0.1604,0.1606,0.1636,0.1591,0.1671,0.1674,0.1677,0.1717,0.1724,0.1731,0,0,0,0,0,0.1499,0.1508,0.1512,0.1515,0.1536,0.1554,0.1557,0.1564,0.1569,0.1585,0.1595,0.1585,0.1627,0.1606,0.1608,0.1639,0.1669,0.1673,0.1677,0.1714,0.1723,0.1731,0,0,0,0,0,0,0.1493,0.151,0.1515,0.1528,0.1543,0.1555,0.1568,0.1576,0.1598,0.1598,0.1601,0.1602,0.1638,0.1636,0.1613,0.1677,0.1649,0.1654,0.1677,0.1685,0.1692,0.1694,0.1591,0,0,0,0,0,0.1495,0.1511,0.1525,0.1536,0.1549,0.1565,0.1574,0.1576,0.1592,0.1603,0.1614,0.1631,0.1655,0.1666,0.168,0.1711,0.1694,0.1737,0.1744,0.175,0.1755,0.1757,0.1763,0.1692,0.1692,0.1692,0,0,0.1493,0.1505,0.1512,0.1537,0.1554,0.1575,0.1572,0.1588,0.1608,0.16,0.1639,0.1653,0.1669,0.1705,0.1721,0.1707,0.176,0.1755,0.1759,0.1762,0.1761,0.1768,0.1774,0.1695,0.1694,0.1694,0,0,0.1498,0.1516,0.1533,0.1555,0.1575,0.1583,0.1594,0.1615,0.1633,0.1664,0.167,0.17,0.1735,0.1751,0.1766,0.182,0.1796,0.1836,0.1872,0.1874,0.1879,0.1883,0.186,0.1862,0.184,0.184,0.184,0,0.1495,0.1522,0.154,0.1568,0.1582,0.1594,0.1614,0.1638,0.1662,0.1682,0.168,0.1748,0.1757,0.1809,0.1834,0.1835,0.1825,0.1836,0.188,0.1885,0.1888,0.1863,0.1865,0.1842,0.1842,0.1842,0.1842,0,0.1519,0.1543,0.1561,0.16,0.1615,0.1637,0.1662,0.1689,0.1708,0.1728,0.1783,0.1801,0.1836,0.1858,0.1866,0.1913,0.1893,0.1885,0.1853,0.1898,0.1869,0.187,0.1846,0.1845,0.1844,0.1844,0,0,0.1503,0.1566,0.1571,0.1599,0.1634,0.165,0.1688,0.1727,0.176,0.1795,0.1842,0.1895,0.1903,0.1921,0.1935,0.1953,0.197,0.1941,0.194,0.1906,0.196,0.1951,0.195,0.1971,0.1972,0.1973,0.1924,0,0.1518,0.1569,0.1592,0.1637,0.1666,0.1694,0.1726,0.1759,0.1793,0.1844,0.1881,0.1928,0.1928,0.1952,0.1969,0.1974,0.1977,0.1983,0.1932,0.193,0.1907,0.1953,0.1837,0.1785,0.1924,0.1924,0.1924,0,0.1534,0.1564,0.1609,0.1662,0.1678,0.1704,0.1756,0.1788,0.1853,0.1883,0.1931,0.1959,0.2004,0.1995,0.2003,0.2008,0.199,0.1987,0.1984,0.1962,0.1924,0.1767,0.1781,0.1925,0.1925,0.1925,0.1925,0,0.1516,0.1577,0.1613,0.1636,0.1693,0.1721,0.1749,0.18,0.1831,0.1913,0.1943,0.199,0.2011,0.2012,0.2004,0.2007,0.2002,0.199,0.1956,0.1953,0.1839,0.1826,0.1988,0.1988,0.1988,0.1988,0.1989,0,0.1528,0.1558,0.1614,0.1644,0.1675,0.1716,0.1761,0.1801,0.1857,0.1893,0.1958,0.1984,0.2021,0.2025,0.2011,0.1985,0.1992,0.1971,0.1952,0.1851,0.184,0.1952,0.1948,0.1987,0.1987,0.1987,0.1988,0,0.1509,0.1553,0.1591,0.1653,0.1674,0.1693,0.1757,0.1784,0.1846,0.1896,0.1923,0.1979,0.1989,0.2006,0.2,0.1982,0.1966,0.1949,0.1824,0.1793,0.191,0.1909,0.1908,0.1908,0.1907,0.1907,0.1907,0,0.15,0.1538,0.1586,0.1601,0.1634,0.1677,0.1699,0.1767,0.1794,0.1877,0.1888,0.1937,0.1949,0.1944,0.1938,0.1915,0.1937,0.1787,0.1784,0.1926,0.1907,0.1907,0.1907,0.163,0.1628,0.1626,0.1624,0,0.1498,0.1523,0.1553,0.1571,0.1599,0.1625,0.167,0.1679,0.1753,0.1785,0.1806,0.183,0.1871,0.1813,0.1822,0.1789,0.1792,0.1746,0.1915,0.169,0.1667,0.1647,0.1655,0.1606,0.1608,0.1609,0.161,0.1611,0.149,0.149,0.1527,0.1535,0.1564,0.1554,0.154,0.1583,0.1593,0.161,0.1679,0.1673,0.1717,0.1677,0.1618,0.1591,0.1713,0.164,0.1645,0.1652,0.1651,0.1631,0.156,0.1561,0.1563,0.1564,0.1565,0,0.1462,0.1469,0.1486,0.1481,0.1468,0.1501,0.1502,0.1463,0.1427,0.1491,0.1499,0.1405,0.1396,0.1428,0.138,0.1395,0.1359,0.1325,0.1271,0.1293,0.1311,0.129,0.1104,0.1102,0.11,0.1098,0,0,0.145,0.1431,0.1424,0.1376,0.1376,0.1322,0.1291,0.1249,0.1271,0.1226,0.1229,0.134,0.1421,0.1244,0.1235,0.1164,0.1209,0.1116,0.1498,0.146,0.1475,0.1519,0.1515,0,0,0,0,0]},{"header":{"parameterUnit":"m.s-1","parameterCategory":2,"la1":30.2991,"la2":30.254,"lo1":-89.0895,"lo2":-89.0444,"dy":0.0017,"dx":0.0017,"nx":28,"ny":28,"refTime":"2024-04-11T09:00:00:Z","depth":"2","parameterNumber":3,"parameterNumberName":"V-component_of_CURRENTS"},"data":[0,0,0,0,0,0,0,0,0,0,0,0,0,0,0,0,0,0,0,0,0,0,0,0,0,0,0,0,0,0,0,0,0,0,0,0,0,0,0,0,0,0,0,0,0,0,0,0,0,0,0,0,0,0,0,0,0,0,-0.0136,-0.0136,0,-0.0139,-0.0139,-0.0139,-0.0148,-0.0148,-0.0149,-0.0149,-0.0162,-0.0162,-0.0162,0,0,0,0,0,0,0,0,0,0,0,0,0,-0.0153,-0.0153,-0.0136,-0.0136,-0.0136,-0.0139,-0.0139,-0.0139,-0.0148,-0.0148,-0.0149,-0.0149,-0.0162,-0.0162,-0.0162,0,0,0,0,0,0,0,0,0,0,0,0,0,-0.015,-0.0153,-0.0136,-0.0141,-0.0141,-0.0139,-0.0139,-0.0139,-0.0148,-0.0148,-0.0149,-0.0149,-0.0162,-0.0162,-0.0162,-0.0158,0,0,-0.0163,-0.0163,0,0,0,0,0,0,0,0,-0.015,-0.0149,-0.014,-0.0141,-0.0141,-0.0143,-0.015,-0.0146,-0.0148,-0.0146,-0.0149,-0.0149,-0.0156,-0.0157,-0.0157,-0.0158,-0.0159,-0.0163,-0.0163,-0.0163,-0.0163,0,0,0,0,0,0,0,-0.015,-0.0149,-0.0137,-0.014,-0.0141,-0.0148,-0.0148,-0.0149,-0.015,-0.0146,-0.0147,-0.0147,-0.0157,-0.0157,-0.0157,-0.0159,-0.0163,-0.0163,-0.0163,-0.0163,-0.0159,-0.0159,0,0,0,0,0,0,-0.0149,-0.0149,-0.0137,-0.0137,-0.0146,-0.0147,-0.0147,-0.0142,-0.0149,-0.0151,-0.0146,-0.0147,-0.0156,-0.0157,-0.0158,-0.0146,-0.0163,-0.0164,-0.0164,-0.0159,-0.0159,-0.0159,0,0,0,0,0,0,-0.0149,-0.0147,-0.0137,-0.0144,-0.0143,-0.0147,-0.0141,-0.0142,-0.0141,-0.015,-0.0151,-0.0144,-0.0156,-0.0158,-0.0156,-0.0147,-0.0164,-0.0164,-0.016,-0.0159,-0.0159,-0.0126,0,0,0,0,0,0,-0.0149,-0.0147,-0.0143,-0.0143,-0.0142,-0.0129,-0.0141,-0.0142,-0.014,-0.0141,-0.0148,-0.0149,-0.0157,-0.0155,-0.0156,-0.0147,-0.0164,-0.016,-0.0159,-0.0159,-0.0128,-0.0125,-0.0123,0,0,0,0,0,-0.015,-0.0139,-0.0142,-0.0141,-0.0136,-0.0129,-0.0129,-0.0133,-0.014,-0.0134,-0.0141,-0.0149,-0.0153,-0.0155,-0.0156,-0.0147,-0.016,-0.0159,-0.0159,-0.0129,-0.0126,-0.0123,0,0,0,0,0,0,-0.0142,-0.0139,-0.0143,-0.0132,-0.0129,-0.013,-0.0126,-0.013,-0.0131,-0.0133,-0.0144,-0.0145,-0.0142,-0.0149,-0.0151,-0.0146,-0.0159,-0.0158,-0.0136,-0.0132,-0.013,-0.0119,-0.0164,0,0,0,0,0,-0.0139,-0.0132,-0.0131,-0.0122,-0.012,-0.0123,-0.0121,-0.0124,-0.0125,-0.0126,-0.0131,-0.0137,-0.014,-0.014,-0.0144,-0.0138,-0.0147,-0.0134,-0.0131,-0.0129,-0.0121,-0.0127,-0.0124,-0.0157,-0.0157,-0.0157,0,0,-0.0133,-0.0131,-0.0127,-0.012,-0.012,-0.0107,-0.0122,-0.0116,-0.0107,-0.0127,-0.0117,-0.0127,-0.0137,-0.0131,-0.013,-0.0136,-0.0127,-0.0128,-0.0126,-0.012,-0.0126,-0.0123,-0.012,-0.0156,-0.0156,-0.0156,0,0,-0.0116,-0.0117,-0.0104,-0.01,-0.0097,-0.0096,-0.0093,-0.0093,-0.0093,-0.0086,-0.01,-0.0104,-0.0106,-0.011,-0.0113,-0.0098,-0.0113,-0.0101,-0.0076,-0.0082,-0.0079,-0.0077,-0.0091,-0.009,-0.0099,-0.0098,-0.0098,0,-0.0109,-0.0092,-0.0099,-0.0086,-0.0077,-0.0089,-0.007,-0.0071,-0.007,-0.0065,-0.0079,-0.0082,-0.0094,-0.0085,-0.0082,-0.009,-0.0099,-0.0087,-0.0078,-0.0076,-0.0074,-0.0089,-0.0088,-0.0097,-0.0097,-0.0097,-0.0097,0,-0.0082,-0.0069,-0.0061,-0.0046,-0.0038,-0.0025,-0.0025,-0.002,-0.0025,-0.0026,-0.0022,-0.0041,-0.0042,-0.0049,-0.0061,-0.0052,-0.0065,-0.0075,-0.0084,-0.0069,-0.0086,-0.0086,-0.0094,-0.0095,-0.0096,-0.0096,0,0,-0.0058,-0.0044,-0.0039,-0.0024,-0.0016,-0.0002,0.0011,0.0027,0.004,0.0029,0.0048,0.0029,0.0013,0.0009,-0.0011,-0.0018,-0.002,-0.0038,-0.0039,-0.0049,-0.0038,-0.0044,-0.0045,-0.0028,-0.0027,-0.0027,-0.0057,0,-0.0032,0.0001,0.0001,0.0038,0.0058,0.0054,0.0072,0.008,0.0079,0.0093,0.007,0.0077,0.0037,0.0037,0.0022,-0.0004,-0.0018,-0.0012,-0.0054,-0.0055,-0.006,-0.0044,-0.0036,-0.0062,-0.0057,-0.0057,-0.0057,0,0.0001,0.0019,0.0056,0.0086,0.0095,0.0113,0.0141,0.0156,0.0164,0.0162,0.0156,0.0137,0.0125,0.009,0.0045,0.0051,0.001,-0.0018,-0.002,-0.0034,-0.0061,-0.0076,-0.0062,-0.0057,-0.0057,-0.0057,-0.0057,0,0.0031,0.0063,0.0094,0.0104,0.0131,0.0148,0.0165,0.0178,0.0202,0.0208,0.0226,0.0196,0.0193,0.014,0.0071,0.0061,0.0022,0.0001,-0.0047,-0.0049,-0.0054,-0.0057,-0.0031,-0.0031,-0.0031,-0.0031,-0.0031,0,0.0065,0.0093,0.0109,0.0128,0.0172,0.0179,0.0223,0.0233,0.0259,0.0299,0.0263,0.0283,0.0207,0.0172,0.0097,0.0028,0.0037,-0.0036,-0.0052,-0.0044,-0.0045,-0.005,-0.0052,-0.0032,-0.0032,-0.0031,-0.0031,0,0.0098,0.0105,0.0146,0.0175,0.0187,0.022,0.0267,0.03,0.0314,0.0367,0.0376,0.0358,0.031,0.0224,0.0142,0.0071,-0.0001,-0.0032,-0.0021,-0.0035,-0.0077,-0.0077,-0.0084,-0.0084,-0.0084,-0.0085,-0.0085,0,0.012,0.0141,0.0181,0.0209,0.0224,0.0267,0.0302,0.0328,0.0368,0.0414,0.0449,0.0421,0.0409,0.0279,0.0151,0.0025,0.0002,-0.0051,-0.0068,-0.0066,-0.008,-0.008,-0.0079,-0.0069,-0.0069,-0.0069,-0.0069,0,0.0163,0.0172,0.0204,0.0255,0.0294,0.0343,0.0394,0.0433,0.0475,0.0514,0.0559,0.0554,0.044,0.0316,0.0145,0.0058,-0.003,-0.0056,-0.0048,-0.0054,-0.0054,-0.0068,-0.0067,-0.007,-0.007,-0.007,-0.007,-0.007,0.0197,0.0222,0.0258,0.0306,0.0354,0.0413,0.0453,0.0509,0.0572,0.0636,0.0634,0.0636,0.0497,0.0286,0.0124,-0.0038,-0.0027,-0.0088,-0.0087,-0.0086,-0.0076,-0.0076,-0.0095,-0.0095,-0.0095,-0.0095,-0.0095,0,0.024,0.0262,0.0308,0.0361,0.0413,0.0433,0.0512,0.0548,0.0615,0.0688,0.0717,0.0602,0.0468,0.0307,0.0066,-0.008,-0.0094,-0.0126,-0.0116,-0.0114,-0.0112,-0.0104,-0.013,-0.0131,-0.0131,-0.0132,0,0,0.0265,0.0306,0.0318,0.0394,0.0435,0.0497,0.0539,0.0595,0.0656,0.0709,0.073,0.0735,0.0543,0.0361,0.0153,0.001,-0.0017,-0.0016,0.0029,0.0067,0.007,-0.0072,-0.0054,0,0,0,0,0]}],[{"header":{"parameterUnit":"m.s-1","parameterCategory":2,"la1":30.2991,"la2":30.254,"lo1":-89.0895,"lo2":-89.0444,"dy":0.0017,"dx":0.0017,"nx":28,"ny":28,"refTime":"2024-04-11T09:00:00:Z","depth":"4","parameterNumber":2,"parameterNumberName":"U-component_of_CURRENTS"},"data":[0,0,0,0,0,0,0,0,0,0,0,0,0,0,0,0,0,0,0,0,0,0,0,0,0,0,0,0,0,0,0,0,0,0,0,0,0,0,0,0,0,0,0,0,0,0,0,0,0,0,0,0,0,0,0,0,0,0,0.0713,0.0713,0,0.0747,0.0748,0.0748,0.0782,0.0783,0.0783,0.0784,0.0855,0.0857,0.0858,0,0,0,0,0,0,0,0,0,0,0,0,0,0.0669,0.0669,0.0713,0.0713,0.0714,0.0747,0.0748,0.0748,0.0782,0.0783,0.0783,0.0784,0.0855,0.0856,0.0858,0,0,0,0,0,0,0,0,0,0,0,0,0,0.0693,0.0669,0.0713,0.0736,0.0738,0.0747,0.0748,0.0748,0.0782,0.0783,0.0783,0.0784,0.0854,0.0856,0.0858,0.0854,0,0,0.0865,0.0866,0,0,0,0,0,0,0,0,0.0691,0.0694,0.0732,0.0734,0.0737,0.0762,0.0758,0.0786,0.0782,0.0764,0.0784,0.0785,0.0828,0.0832,0.0834,0.0858,0.0861,0.0865,0.0866,0.0867,0.0868,0,0,0,0,0,0,0,0.069,0.0693,0.0725,0.0732,0.0735,0.0742,0.0746,0.0763,0.079,0.0766,0.0768,0.0774,0.0829,0.0832,0.0836,0.0862,0.0865,0.0867,0.0868,0.0869,0.0958,0.0959,0,0,0,0,0,0,0.0687,0.0691,0.0724,0.0726,0.0717,0.0742,0.0747,0.0752,0.079,0.0796,0.0773,0.0775,0.0828,0.0834,0.0839,0.0904,0.0867,0.0869,0.087,0.0957,0.0958,0.0959,0,0,0,0,0,0,0.0686,0.069,0.0723,0.0711,0.0715,0.0742,0.0748,0.0753,0.0778,0.0795,0.0802,0.0796,0.0829,0.0836,0.0872,0.0904,0.087,0.0872,0.0956,0.0957,0.0959,0.099,0,0,0,0,0,0,0.0685,0.0689,0.0699,0.071,0.0716,0.0741,0.0747,0.0753,0.0779,0.0783,0.0817,0.0823,0.083,0.0869,0.0874,0.0907,0.0873,0.0954,0.0956,0.0958,0.0988,0.0993,0.0997,0,0,0,0,0,0.0683,0.0685,0.0699,0.0704,0.0726,0.0742,0.0745,0.0766,0.078,0.0792,0.0816,0.0823,0.0886,0.0871,0.0877,0.0911,0.0953,0.0956,0.0958,0.0986,0.0992,0.0997,0,0,0,0,0,0,0.0674,0.0689,0.0705,0.0713,0.0735,0.0748,0.076,0.0777,0.0804,0.0815,0.0832,0.084,0.0884,0.0891,0.0874,0.0943,0.0923,0.0927,0.0942,0.0948,0.0953,0.0949,0.0875,0,0,0,0,0,0.0676,0.068,0.0703,0.0713,0.0725,0.0748,0.0761,0.0778,0.08,0.0814,0.0838,0.0867,0.0895,0.0916,0.0936,0.0972,0.0981,0.0999,0.1004,0.1008,0.1009,0.1047,0.1055,0.0968,0.0968,0.0968,0,0,0.0675,0.0685,0.0688,0.0712,0.073,0.0749,0.0758,0.0783,0.0808,0.0817,0.0861,0.0883,0.0906,0.0947,0.0968,0.0961,0.1039,0.1011,0.1014,0.1014,0.1051,0.1059,0.1067,0.0969,0.0969,0.0969,0,0,0.067,0.0687,0.0692,0.0709,0.0741,0.0759,0.0772,0.0802,0.0827,0.0867,0.0883,0.0921,0.0964,0.0986,0.1003,0.1045,0.1059,0.1062,0.1089,0.1126,0.1133,0.114,0.1167,0.1175,0.1068,0.1068,0.1068,0,0.0675,0.0683,0.0697,0.071,0.073,0.0766,0.0787,0.0813,0.0855,0.0879,0.0888,0.0957,0.0981,0.1027,0.1051,0.1056,0.1078,0.1065,0.1131,0.1138,0.1144,0.117,0.118,0.107,0.107,0.107,0.107,0,0.0672,0.0688,0.0693,0.0724,0.0747,0.077,0.081,0.0844,0.0883,0.0912,0.0971,0.0998,0.1041,0.1061,0.1074,0.1135,0.1136,0.1129,0.1115,0.1155,0.118,0.1189,0.1073,0.1072,0.1072,0.1071,0,0,0.0664,0.0688,0.0693,0.071,0.0759,0.0777,0.0825,0.0877,0.0914,0.096,0.1008,0.1063,0.1085,0.1105,0.1126,0.1165,0.1235,0.1176,0.1178,0.12,0.1321,0.1228,0.1228,0.1247,0.1249,0.125,0.1322,0,0.0667,0.0685,0.0703,0.0737,0.0754,0.0801,0.0845,0.0897,0.0945,0.0999,0.1042,0.1096,0.11,0.1135,0.1172,0.1227,0.1261,0.1216,0.1282,0.1283,0.1193,0.1236,0.1256,0.1328,0.133,0.1332,0.1333,0,0.0662,0.0676,0.0705,0.0749,0.0765,0.08,0.0875,0.0917,0.0995,0.1034,0.1084,0.1122,0.1195,0.1188,0.1283,0.126,0.1295,0.1324,0.1327,0.1233,0.1206,0.128,0.1349,0.1348,0.1347,0.1346,0.1345,0,0.0639,0.0678,0.0702,0.0717,0.0775,0.0812,0.086,0.0936,0.0983,0.1065,0.1108,0.1176,0.1235,0.1283,0.1347,0.1333,0.144,0.1423,0.136,0.1354,0.1402,0.1394,0.1477,0.1477,0.1477,0.1477,0.1477,0,0.0622,0.0641,0.0699,0.0705,0.076,0.081,0.0876,0.0928,0.1012,0.1068,0.1131,0.118,0.1268,0.1334,0.1368,0.1393,0.1457,0.1371,0.1368,0.1414,0.1407,0.1409,0.14,0.1479,0.1479,0.1478,0.1478,0,0.0587,0.0617,0.0649,0.0716,0.0745,0.079,0.0887,0.0926,0.1014,0.1087,0.1123,0.1222,0.1304,0.1363,0.1456,0.142,0.1453,0.144,0.1492,0.1491,0.1337,0.1329,0.1378,0.1375,0.1373,0.1371,0.1369,0,0.0566,0.0576,0.0651,0.0683,0.0719,0.079,0.0835,0.0922,0.0962,0.11,0.1127,0.1242,0.1295,0.1347,0.1409,0.1449,0.143,0.1429,0.1371,0.1334,0.1328,0.1324,0.1319,0.1366,0.1365,0.1365,0.1364,0,0.0532,0.0569,0.0599,0.0659,0.0709,0.0757,0.0828,0.0853,0.0955,0.1037,0.1114,0.1167,0.1247,0.1304,0.134,0.1364,0.1421,0.1406,0.141,0.1354,0.1321,0.1316,0.1314,0.1356,0.1357,0.1358,0.1359,0,0.0522,0.0539,0.0586,0.0638,0.0692,0.0721,0.0757,0.0813,0.0866,0.1006,0.1034,0.1148,0.1243,0.1261,0.13,0.131,0.1287,0.1239,0.1251,0.1261,0.1186,0.1124,0.1104,0,0,0,0,0,0.0519,0.053,0.0562,0.0609,0.0656,0.069,0.0752,0.0787,0.0877,0.0905,0.097,0.1039,0.1106,0.1164,0.1152,0.124,0.1285,0.1219,0.1233,0.1313,0.1322,0.1244,0,0,0,0,0,0,0.051,0.0545,0.0547,0.0575,0.0603,0.0642,0.0679,0.0735,0.0753,0.0856,0.0898,0.0977,0.1054,0.1112,0.1138,0.1152,0.1138,0.1286,0.1283,0.1308,0.1316,0.1323,0.1246,0,0,0,0,0]},{"header":{"parameterUnit":"m.s-1","parameterCategory":2,"la1":30.2991,"la2":30.254,"lo1":-89.0895,"lo2":-89.0444,"dy":0.0017,"dx":0.0017,"nx":28,"ny":28,"refTime":"2024-04-11T09:00:00:Z","depth":"4","parameterNumber":3,"parameterNumberName":"V-component_of_CURRENTS"},"data":[0,0,0,0,0,0,0,0,0,0,0,0,0,0,0,0,0,0,0,0,0,0,0,0,0,0,0,0,0,0,0,0,0,0,0,0,0,0,0,0,0,0,0,0,0,0,0,0,0,0,0,0,0,0,0,0,0,0,-0.0059,-0.0059,0,-0.005,-0.005,-0.005,-0.007,-0.0071,-0.0072,-0.0072,-0.0079,-0.0078,-0.0078,0,0,0,0,0,0,0,0,0,0,0,0,0,-0.009,-0.0089,-0.0059,-0.0059,-0.0059,-0.005,-0.005,-0.005,-0.007,-0.0071,-0.0072,-0.0072,-0.0079,-0.0078,-0.0078,0,0,0,0,0,0,0,0,0,0,0,0,0,-0.0079,-0.0089,-0.0059,-0.0068,-0.0068,-0.005,-0.005,-0.005,-0.007,-0.0071,-0.0072,-0.0073,-0.0079,-0.0078,-0.0078,-0.0055,0,0,-0.0076,-0.0076,0,0,0,0,0,0,0,0,-0.0079,-0.0077,-0.0067,-0.0067,-0.0068,-0.0062,-0.0063,-0.0052,-0.007,-0.007,-0.0072,-0.0073,-0.0073,-0.0073,-0.007,-0.0055,-0.0056,-0.0076,-0.0075,-0.0075,-0.0075,0,0,0,0,0,0,0,-0.008,-0.0078,-0.0056,-0.0066,-0.0067,-0.007,-0.007,-0.0061,-0.0067,-0.007,-0.0071,-0.0069,-0.0074,-0.007,-0.007,-0.0056,-0.0076,-0.0075,-0.0075,-0.0075,-0.0045,-0.0044,0,0,0,0,0,0,-0.0079,-0.0079,-0.0056,-0.0055,-0.0075,-0.0069,-0.0068,-0.0063,-0.0067,-0.0068,-0.0068,-0.007,-0.0071,-0.0071,-0.0071,-0.005,-0.0075,-0.0075,-0.0074,-0.0045,-0.0045,-0.0044,0,0,0,0,0,0,-0.008,-0.0077,-0.0056,-0.0067,-0.0064,-0.0067,-0.0061,-0.0062,-0.0067,-0.0066,-0.0067,-0.0073,-0.0072,-0.0071,-0.0064,-0.005,-0.0074,-0.0074,-0.0046,-0.0045,-0.0045,-0.0005,0,0,0,0,0,0,-0.0081,-0.0077,-0.0074,-0.0067,-0.0064,-0.0041,-0.006,-0.0061,-0.0063,-0.0066,-0.0069,-0.0071,-0.0072,-0.0065,-0.0064,-0.005,-0.0073,-0.0046,-0.0045,-0.0045,-0.0007,-0.0003,0.0,0,0,0,0,0,-0.0082,-0.0063,-0.0074,-0.0071,-0.0059,-0.004,-0.0039,-0.0045,-0.0063,-0.0055,-0.0062,-0.0071,-0.0059,-0.0064,-0.0062,-0.0048,-0.0047,-0.0046,-0.0045,-0.0008,-0.0004,-0.0,0,0,0,0,0,0,-0.0069,-0.0063,-0.0075,-0.0055,-0.0051,-0.0044,-0.0035,-0.0046,-0.0045,-0.0053,-0.0061,-0.0061,-0.0051,-0.0056,-0.0061,-0.0039,-0.0056,-0.0055,-0.0029,-0.0025,-0.0021,-0.0013,-0.0073,0,0,0,0,0,-0.0066,-0.0056,-0.0053,-0.0038,-0.0035,-0.004,-0.0036,-0.0041,-0.0039,-0.0041,-0.0044,-0.0048,-0.0043,-0.004,-0.0037,-0.002,-0.004,-0.0012,-0.0009,-0.0006,0.0001,-0.0024,-0.0023,-0.0041,-0.0041,-0.0041,0,0,-0.0057,-0.0053,-0.0048,-0.0036,-0.0035,-0.0016,-0.004,-0.0029,-0.0016,-0.004,-0.0025,-0.0035,-0.0037,-0.002,-0.0016,-0.0023,-0.0011,-0.0005,-0.0002,0.0004,-0.0023,-0.0021,-0.002,-0.004,-0.0041,-0.0041,0,0,-0.0026,-0.0032,-0.0012,-0.0005,-0.0001,-0.0001,0.0,0.0003,0.0001,0.0014,-0.0002,-0.0004,0.0005,0.0008,0.001,0.0035,0.0007,0.0031,0.006,0.0036,0.0037,0.0038,0.0015,0.0013,0.0035,0.0035,0.0035,0,-0.0018,0.0007,-0.0003,0.0019,0.0029,0.0007,0.0032,0.0034,0.0038,0.004,0.0023,0.0027,0.0022,0.0043,0.005,0.0045,0.0021,0.0046,0.004,0.004,0.0041,0.0017,0.0015,0.0037,0.0037,0.0037,0.0037,0,0.0029,0.0046,0.0061,0.0077,0.0086,0.0105,0.0104,0.0109,0.0095,0.0091,0.0098,0.0087,0.0087,0.0085,0.0077,0.0082,0.0062,0.0045,0.003,0.0045,0.0019,0.0016,0.004,0.0039,0.0039,0.0038,0,0,0.0055,0.0087,0.0091,0.0105,0.0116,0.0131,0.0152,0.0165,0.0173,0.0165,0.0174,0.0177,0.0151,0.0151,0.0135,0.0117,0.0097,0.0084,0.0081,0.0062,0.0038,0.0036,0.0032,0.0072,0.0072,0.0072,0.0019,0,0.0092,0.0141,0.0147,0.0191,0.0214,0.0206,0.0228,0.0232,0.0223,0.0226,0.0206,0.0206,0.0182,0.0175,0.0155,0.0109,0.0091,0.0113,0.0025,0.0023,0.002,0.0029,0.0071,0.0016,0.0016,0.0015,0.0015,0,0.0135,0.0161,0.0209,0.0243,0.0251,0.0273,0.029,0.0306,0.0301,0.0292,0.0281,0.0255,0.0239,0.0206,0.0143,0.0153,0.0103,0.0065,0.0061,0.0045,0.0016,-0.0003,0.0009,0.0009,0.001,0.001,0.0011,0,0.0154,0.0205,0.0241,0.0254,0.0288,0.0306,0.032,0.0323,0.0334,0.0326,0.0321,0.0294,0.0271,0.0211,0.0135,0.013,0.0054,0.0035,-0.0009,-0.001,-0.0011,-0.0011,-0.0009,-0.0009,-0.0009,-0.0009,-0.0008,0,0.019,0.0221,0.0253,0.0275,0.0315,0.0327,0.0359,0.0365,0.0372,0.0381,0.035,0.0344,0.0266,0.0213,0.0144,0.0061,0.0058,0.0001,-0.0022,0.0007,0.0009,-0.0013,-0.0013,-0.0011,-0.001,-0.001,-0.0009,0,0.0205,0.0228,0.0272,0.0312,0.0325,0.0349,0.0386,0.0405,0.0405,0.0413,0.041,0.0372,0.0301,0.0227,0.0124,0.0072,-0.0006,-0.0034,0.0008,-0.0012,-0.0056,-0.0054,-0.009,-0.009,-0.0091,-0.0091,-0.0091,0,0.022,0.0244,0.0291,0.0313,0.0333,0.037,0.0394,0.0416,0.043,0.0429,0.0429,0.0376,0.0339,0.0205,0.0119,-0.0002,-0.002,-0.0061,-0.0058,-0.0045,-0.0064,-0.006,-0.0057,-0.0092,-0.0092,-0.0092,-0.0092,0,0.0243,0.0254,0.0284,0.0324,0.0356,0.0396,0.0429,0.0444,0.046,0.0466,0.0443,0.0382,0.0305,0.0204,0.0113,0.0025,-0.0034,-0.0065,-0.0065,-0.0063,-0.0048,-0.0066,-0.0062,-0.0094,-0.0094,-0.0093,-0.0093,0,0.0251,0.0268,0.0296,0.033,0.0368,0.0399,0.0427,0.0446,0.0462,0.0462,0.0452,0.038,0.034,0.0217,0.0132,0.0049,0.0023,-0.0008,-0.0012,-0.0011,0.0028,0.006,0.0033,0,0,0,0,0,0.0258,0.027,0.0301,0.0333,0.0369,0.0388,0.0436,0.0459,0.0477,0.0464,0.0461,0.0393,0.0274,0.0224,0.014,0.0112,0.0,0.0009,-0.0039,-0.0101,-0.01,-0.0066,0,0,0,0,0,0,0.0263,0.0286,0.0294,0.0321,0.0339,0.0378,0.0408,0.0429,0.0425,0.0435,0.0376,0.0359,0.0244,0.0314,0.013,0.0106,0.0062,-0.0042,-0.0044,-0.0102,-0.0101,-0.0099,-0.0065,0,0,0,0,0]}]]